User: anonymous   Login
Location: Berg
(47.2344°N, 9.5296°E)
Time: 10:21:09
(UTC+00:00)
Language:

Nadezhda 4 Rocket - Orbit

View from above orbital plane
View from above orbital plane
View from above satellite
View from above satellite

Ground track
Ground track

The orbit data is extracted from the following two-line orbital elements,

1 23180U 94041B   21166.82533400  .00000067  00000-0  51384-4 0  9991
2 23180  82.9465 284.8408 0030360  92.1160  19.0038 13.78005688353924
Epoch (UTC): 15 June 2021 19:48:28
Eccentricity: 0.0030360
inclination: 82.9465°
perigee height: 948 km
apogee height: 993 km
right ascension of ascending node: 284.8408°
argument of perigee: 92.1160°
revolutions per day: 13.78005688
mean anomaly at epoch: 19.0038°
orbit number at epoch: 35392

The dashed part of the orbit path shows where the satellite is in the earth's shadow,  

DLR